Weather History for KONL - September, 2014

Change the Weather History Date:

Tuesday, September 16, 2014

  Actual Average (WUND) Record (WUND)
Temperature  
Mean Temperature 58 °F -  
Max Temperature 72 °F - - (-1)
Min Temperature 44 °F - - (-1)
Degree Days  
Heating Degree Days 8    
Growing Degree Days 8 (Base 50)    
Moisture  
Dew Point 51 °F    
Average Humidity 79    
Maximum Humidity 94    
Minimum Humidity 62    
Precipitation  
Precipitation 0.00 in - - ()
Sea Level Pressure  
Sea Level Pressure 30.09 in    
Wind  
Wind Speed 9 mph (South)    
Max Wind Speed 21 mph    
Max Gust Speed 26 mph    
Visibility 10 miles    
Events      
Averages and records for this station are not official NWS values.
T = Trace of Precipitation, MM = Missing Value Source: NWS Daily Summary

Daily Weather History Graph

Daily Weather History Graph

Search for Another Location

Airport or City:

Trip Planner

Search our weather history database for the weather conditions in past years. The results will help you decide how hot, cold, wet, or windy it might be!

Date:

Astronomy

Sep. 16, 2014 Rise Set
Actual Time 7:15 AM CDT 7:42 PM CDT
Civil Twilight 6:47 AM CDT 8:10 PM CDT
Nautical Twilight 6:14 AM CDT 8:43 PM CDT
Astronomical Twilight 5:39 AM CDT 9:18 PM CDT
Moon 12:21 AM CDT (9/16) 3:12 PM CDT (9/16)
Length of Visible Light 13h 23m
Length of Day
12h 26m
Last Quarter, 44% of the Moon is Illuminated
Sep 16
Last Quarter
Sep 24
New
Oct 1
First Quarter
Oct 8
Full
Oct 15
Last Quarter

Hourly Weather History & Observations

Time (CDT) Temp. Windchill Dew Point Humidity Pressure Visibility Wind Dir Wind Speed Gust Speed Precip Events Conditions
12:15 AM 45.7 °F 43.4 °F 41.0 °F 84% 30.24 in 10.0 mi SSE 4.6 mph - N/A   Clear
12:35 AM 45.9 °F 43.6 °F 41.0 °F 83% 30.24 in 10.0 mi SSE 4.6 mph - N/A   Clear
12:55 AM 45.7 °F 44.4 °F 41.0 °F 84% 30.24 in 10.0 mi SSE 3.5 mph - N/A   Clear
1:15 AM 45.5 °F 42.5 °F 41.0 °F 84% 30.24 in 10.0 mi SSE 5.8 mph - N/A   Clear
1:35 AM 45.1 °F 42.8 °F 41.2 °F 86% 30.23 in 10.0 mi SSE 4.6 mph - N/A   Clear
1:55 AM 44.6 °F 41.4 °F 41.2 °F 88% 30.23 in 10.0 mi SSE 5.8 mph - N/A   Clear
2:15 AM 45.1 °F 41.4 °F 41.4 °F 87% 30.23 in 10.0 mi SSE 6.9 mph - N/A   Clear
2:35 AM 44.8 °F 41.0 °F 41.2 °F 87% 30.23 in 10.0 mi SSE 6.9 mph - N/A   Clear
2:55 AM 45.7 °F 41.5 °F 41.9 °F 87% 30.22 in 10.0 mi South 8.1 mph - N/A   Clear
3:15 AM 45.5 °F 41.3 °F 41.9 °F 87% 30.22 in 10.0 mi South 8.1 mph - N/A   Clear
3:35 AM 44.4 °F 40.0 °F 41.9 °F 91% 30.22 in 10.0 mi South 8.1 mph - N/A   Clear
3:55 AM 44.2 °F 39.7 °F 41.9 °F 91% 30.21 in 10.0 mi South 8.1 mph - N/A   Clear
4:15 AM 45.1 °F 40.3 °F 42.3 °F 90% 30.21 in 10.0 mi South 9.2 mph - N/A   Clear
4:35 AM 45.1 °F 40.3 °F 42.4 °F 90% 30.21 in 10.0 mi South 9.2 mph - N/A   Clear
4:55 AM 45.3 °F 40.1 °F 42.8 °F 91% 30.19 in 10.0 mi South 10.4 mph - N/A   Clear
5:15 AM 45.0 °F 40.1 °F 42.8 °F 92% 30.19 in 10.0 mi South 9.2 mph - N/A   Clear
5:35 AM 44.8 °F 40.4 °F 42.8 °F 93% 30.18 in 10.0 mi South 8.1 mph - N/A   Clear
5:55 AM 45.1 °F 40.8 °F 43.0 °F 92% 30.18 in 10.0 mi South 8.1 mph - N/A   Clear
6:15 AM 45.7 °F 41.0 °F 43.5 °F 92% 30.17 in 10.0 mi South 9.2 mph - N/A   Clear
6:35 AM 45.1 °F 40.8 °F 43.3 °F 93% 30.17 in 10.0 mi South 8.1 mph - N/A   Clear
6:55 AM 45.1 °F 40.8 °F 43.3 °F 93% 30.17 in 10.0 mi South 8.1 mph - N/A   Clear
7:15 AM 45.5 °F 40.8 °F 43.7 °F 93% 30.17 in 10.0 mi South 9.2 mph - N/A   Clear
7:35 AM 46.2 °F 41.7 °F 44.1 °F 92% 30.17 in 10.0 mi South 9.2 mph - N/A   Clear
7:55 AM 47.3 °F - 44.8 °F 91% 30.16 in 10.0 mi South 10.4 mph - N/A   Clear
8:15 AM 48.4 °F - 45.5 °F 90% 30.16 in 10.0 mi South 10.4 mph - N/A   Clear
8:35 AM 49.8 °F - 46.0 °F 87% 30.15 in 10.0 mi South 11.5 mph - N/A   Clear
8:55 AM 51.1 °F - 46.9 °F 86% 30.15 in 10.0 mi South 12.7 mph 17.3 mph N/A   Clear
9:15 AM 52.9 °F - 47.7 °F 82% 30.15 in 10.0 mi South 11.5 mph - N/A   Clear
9:35 AM 54.5 °F - 48.2 °F 79% 30.14 in 10.0 mi South 15.0 mph 20.7 mph N/A   Clear
9:55 AM 55.9 °F - 48.2 °F 75% 30.13 in 10.0 mi South 19.6 mph 26.5 mph N/A   Clear
10:15 AM 57.4 °F - 48.6 °F 72% 30.13 in 10.0 mi South 17.3 mph 25.3 mph N/A   Clear
10:35 AM 59.2 °F - 49.5 °F 70% 30.12 in 10.0 mi South 16.1 mph 23.0 mph N/A   Clear
10:55 AM 60.6 °F - 49.6 °F 67% 30.11 in 10.0 mi South 18.4 mph 23.0 mph N/A   Clear
11:15 AM 61.9 °F - 50.0 °F 65% 30.10 in 10.0 mi South 17.3 mph 24.2 mph N/A   Clear
11:35 AM 63.5 °F - 51.4 °F 65% 30.10 in 10.0 mi South 16.1 mph 21.9 mph N/A   Clear
11:55 AM 63.9 °F - 51.4 °F 64% 30.09 in 10.0 mi South 20.7 mph 25.3 mph N/A   Clear
12:15 PM 65.5 °F - 53.1 °F 64% 30.09 in 10.0 mi South 17.3 mph 24.2 mph N/A   Clear
12:35 PM 66.2 °F - 53.4 °F 63% 30.08 in 10.0 mi South 19.6 mph - N/A   Clear
12:55 PM 67.5 °F - 54.5 °F 63% 30.07 in 10.0 mi South 13.8 mph 24.2 mph N/A   Clear
1:15 PM 68.2 °F - 55.4 °F 64% 30.06 in 10.0 mi South 17.3 mph 24.2 mph N/A   Clear
1:35 PM 69.3 °F - 56.1 °F 63% 30.05 in 10.0 mi South 17.3 mph 26.5 mph N/A   Clear
1:55 PM 69.4 °F - 56.1 °F 62% 30.03 in 10.0 mi South 17.3 mph 21.9 mph N/A   Scattered Clouds
2:15 PM 70.3 °F - 57.0 °F 63% 30.03 in 10.0 mi South 13.8 mph 21.9 mph N/A   Scattered Clouds
2:35 PM 70.0 °F - 56.8 °F 63% 30.02 in 10.0 mi South 16.1 mph 23.0 mph N/A   Mostly Cloudy
2:55 PM 69.8 °F - 57.2 °F 64% 30.02 in 10.0 mi South 15.0 mph 23.0 mph N/A   Mostly Cloudy
3:15 PM 70.2 °F - 57.2 °F 63% 30.01 in 10.0 mi South 17.3 mph 24.2 mph N/A   Mostly Cloudy
3:35 PM 70.0 °F - 57.2 °F 64% 30.01 in 10.0 mi South 16.1 mph 23.0 mph N/A   Mostly Cloudy
3:55 PM 69.8 °F - 57.4 °F 65% 30.00 in 10.0 mi South 15.0 mph 20.7 mph N/A   Mostly Cloudy
4:15 PM 71.8 °F - 57.9 °F 62% 29.99 in 10.0 mi South 16.1 mph - N/A   Mostly Cloudy
4:35 PM 70.9 °F - 57.7 °F 63% 29.99 in 10.0 mi SSW 16.1 mph 21.9 mph N/A   Overcast
4:55 PM 71.1 °F - 57.6 °F 62% 29.99 in 10.0 mi South 16.1 mph 21.9 mph N/A   Mostly Cloudy
5:15 PM 71.2 °F - 58.3 °F 64% 29.99 in 10.0 mi South 11.5 mph 21.9 mph N/A   Overcast
5:35 PM 70.0 °F - 57.9 °F 65% 29.98 in 10.0 mi South 13.8 mph 20.7 mph N/A   Overcast
5:55 PM 70.2 °F - 58.5 °F 66% 29.98 in 10.0 mi South 11.5 mph - N/A   Mostly Cloudy
6:15 PM 68.5 °F - 58.1 °F 69% 29.97 in 10.0 mi South 11.5 mph 18.4 mph N/A   Scattered Clouds
6:35 PM 68.9 °F - 58.3 °F 69% 29.97 in 10.0 mi South 11.5 mph - N/A   Clear
6:55 PM 67.5 °F - 58.1 °F 72% 29.96 in 10.0 mi South 8.1 mph - N/A   Clear
7:15 PM 66.0 °F - 57.6 °F 74% 29.97 in 10.0 mi South 9.2 mph - N/A   Clear
7:35 PM 64.6 °F - 57.4 °F 77% 29.97 in 10.0 mi South 6.9 mph - N/A   Clear
7:55 PM 63.3 °F - 57.4 °F 81% 29.97 in 10.0 mi South 5.8 mph - N/A   Clear
8:15 PM 61.7 °F - 57.2 °F 85% 29.97 in 10.0 mi South 6.9 mph - N/A   Clear
8:35 PM 61.2 °F - 57.2 °F 87% 29.97 in 10.0 mi South 8.1 mph - N/A   Clear
8:55 PM 60.8 °F - 57.2 °F 88% 29.97 in 10.0 mi South 8.1 mph - N/A   Clear
9:15 PM 60.4 °F - 56.8 °F 88% 29.97 in 10.0 mi South 8.1 mph - N/A   Clear
9:35 PM 59.0 °F - 56.5 °F 91% 29.97 in 10.0 mi South 8.1 mph - N/A   Clear
9:55 PM 59.4 °F - 56.7 °F 91% 29.96 in 10.0 mi South 9.2 mph - N/A   Clear
10:15 PM 58.5 °F - 56.3 °F 93% 29.95 in 10.0 mi SSE 8.1 mph - N/A   Clear
10:35 PM 58.6 °F - 56.1 °F 91% 29.96 in 10.0 mi South 9.2 mph - N/A   Clear
10:55 PM 58.1 °F - 55.8 °F 92% 29.96 in 10.0 mi South 9.2 mph - N/A   Clear
11:15 PM 57.4 °F - 55.4 °F 93% 29.96 in 10.0 mi South 6.9 mph - N/A   Clear
11:35 PM 56.7 °F - 55.0 °F 94% 29.96 in 10.0 mi South 6.9 mph - N/A   Clear
11:55 PM 56.3 °F - 54.7 °F 94% 29.95 in 10.0 mi South 6.9 mph - N/A   Clear